Date_and_time,latitude,longitude,wind_speed,RelWindDirFrom,WindDirFrom,air_pressure,air_temperature,relative_humidity,Temp,platform_speed_wrt_ground,air_pressure_at_mean_sea_level,platform_orientation
2019-03-09 23:40,50.63044,-96.9807666666667,5.3,7.5,309,980.25,-3.0,51,0.82,0.0,1008.08,360.0
2019-03-09 23:50,50.63044,-96.9807666666667,6.1,10.3,296,980.31,-3.1,51,0.80,0.0,1008.19,360.0
2019-03-10 00:00,50.63044,-96.9807683333333,7.5,10.2,290,980.36,-3.2,51,0.80,0.0,1008.27,360.0
2019-03-10 00:10,50.6304416666667,-96.9807683333333,6.6,10.3,293,980.49,-3.4,52,0.80,0.0,1008.44,360.0
2019-03-10 00:20,50.6304416666667,-96.9807683333333,6.8,9.7,291,980.43,-3.5,52,0.79,0.0,1008.40,360.0
2019-03-10 00:30,50.6304416666667,-96.9807666666667,6.4,9.8,289,980.46,-3.7,53,0.79,0.0,1008.46,360.0
2019-03-10 00:40,50.6304433333333,-96.9807633333333,6.4,10.1,294,980.52,-3.9,54,0.77,0.0,1008.55,360.0
2019-03-10 00:50,50.63045,-96.980775,7.4,11.2,296,980.64,-4.1,54,0.75,0.0,1008.68,360.0
2019-03-10 01:00,50.6304483333333,-96.9807766666667,7.5,11.0,295,980.79,-4.2,55,0.75,0.0,1008.85,360.0
2019-03-10 01:10,50.6304466666667,-96.9807766666667,6.7,10.2,296,980.89,-4.4,56,0.75,0.0,1008.98,360.0
2019-03-10 01:20,50.6304466666667,-96.9807783333333,7.1,10.2,296,981.00,-4.5,57,0.75,0.0,1009.09,360.0
2019-03-10 01:30,50.6304583333333,-96.9807733333333,6.8,10.6,294,981.12,-4.6,57,0.76,0.0,1009.19,360.0
2019-03-10 01:40,50.63045,-96.9807716666667,6.8,10.2,292,981.21,-4.6,58,0.78,0.0,1009.29,360.0
2019-03-10 01:50,50.6304516666667,-96.9807666666667,6.6,11.0,297,981.22,-4.8,58,0.79,0.0,1009.32,360.0
2019-03-10 02:00,50.6304516666667,-96.9807683333333,7.0,9.9,297,981.21,-4.9,58,0.81,0.0,1009.31,360.0
2019-03-10 02:10,50.6304483333333,-96.98077,7.8,11.8,298,981.16,-5.0,58,0.82,0.0,1009.28,360.0
2019-03-10 02:20,50.6304466666667,-96.9807683333333,8.6,12.7,298,981.21,-5.1,58,0.82,0.0,1009.35,360.0
2019-03-10 02:30,50.630445,-96.9807683333333,7.5,11.5,295,981.40,-5.2,59,0.82,0.0,1009.56,360.0
2019-03-10 02:40,50.630445,-96.98077,7.5,11.0,293,981.50,-5.3,59,0.84,0.0,1009.68,360.0
2019-03-10 02:50,50.6304433333333,-96.9807716666667,6.8,10.6,297,981.68,-5.4,59,0.84,0.0,1009.87,360.0
2019-03-10 03:00,50.630425,-96.9807866666667,7.2,10.1,309,981.82,-5.6,60,0.83,0.0,1010.03,228.4
2019-03-10 03:10,50.6304283333333,-96.980775,6.6,8.7,316,981.86,-5.7,60,0.80,0.0,1010.09,228.4
2019-03-10 03:20,50.6304266666667,-96.9807733333333,5.8,8.6,318,981.96,-5.8,61,0.77,0.0,1010.20,228.4
2019-03-10 03:30,50.63043,-96.980775,6.6,9.0,324,982.06,-5.9,61,0.75,0.0,1010.31,228.4
2019-03-10 03:40,50.6304166666667,-96.9807866666667,5.9,8.3,320,982.14,-6.1,61,0.74,0.0,1010.41,228.4
2019-03-10 03:50,50.6304383333333,-96.980785,6.7,9.4,314,982.26,-6.2,62,0.73,0.0,1010.55,228.4
2019-03-10 04:00,50.630435,-96.9807783333333,8.1,12.1,315,982.33,-6.4,62,0.73,0.0,1010.63,216.6
2019-03-10 04:10,50.6304383333333,-96.98078,8.5,12.0,325,982.43,-6.7,63,0.74,0.0,1010.76,216.6
2019-03-10 04:20,50.63044,-96.98078,8.7,12.4,326,982.51,-6.9,64,0.75,0.0,1010.85,216.6
2019-03-10 04:30,50.630445,-96.98078,8.7,13.7,326,982.56,-7.0,65,0.74,0.0,1010.92,216.6
2019-03-10 04:40,50.6304383333333,-96.9807783333333,9.1,12.6,328,982.60,-7.1,65,0.74,0.0,1010.98,216.6
2019-03-10 04:50,50.6304466666667,-96.9807816666667,9.8,14.8,332,982.63,-7.2,65,0.72,0.0,1011.01,216.6
2019-03-10 05:00,50.6304383333333,-96.9807866666667,8.9,12.4,331,982.72,-7.4,66,0.71,0.0,1011.13,237.7
2019-03-10 05:10,50.6304416666667,-96.9807716666667,8.4,12.4,326,982.81,-7.5,66,0.71,0.0,1011.23,237.7
2019-03-10 05:20,50.630425,-96.9807566666667,8.3,12.0,324,982.89,-7.7,67,0.71,0.0,1011.33,237.7
2019-03-10 05:30,50.6304516666667,-96.9807666666667,7.3,12.5,320,983.02,-8.0,68,0.71,0.0,1011.49,237.7
2019-03-10 05:40,50.6304383333333,-96.980765,6.9,9.6,317,983.04,-8.3,69,0.71,0.0,1011.54,237.7
2019-03-10 05:50,50.6304416666667,-96.9807683333333,6.8,9.6,318,983.13,-8.5,70,0.71,0.0,1011.65,237.7
2019-03-10 06:00,50.6304433333333,-96.9807683333333,7.1,10.0,318,983.19,-8.7,71,0.70,0.0,1011.73,53.0
2019-03-10 06:10,50.6304433333333,-96.98077,6.9,9.9,317,983.22,-8.9,72,0.70,0.0,1011.79,53.0
2019-03-10 06:20,50.6304433333333,-96.9807716666667,6.3,9.3,315,983.16,-9.1,74,0.70,0.0,1011.75,53.0
2019-03-10 06:30,50.6304416666667,-96.9807716666667,6.5,9.9,310,983.20,-9.3,75,0.70,0.0,1011.81,53.0
2019-03-10 06:40,50.6304316666667,-96.98078,6.5,9.6,309,983.30,-9.4,75,0.70,0.0,1011.92,53.0
2019-03-10 06:50,50.6304416666667,-96.9807733333333,6.4,8.4,309,983.35,-9.6,76,0.70,0.0,1011.98,53.0
2019-03-10 07:00,50.630445,-96.9807683333333,5.9,8.3,308,983.43,-9.7,76,0.69,0.0,1012.08,68.5
2019-03-10 07:10,50.630445,-96.98077,5.2,7.2,302,983.55,-9.9,77,0.68,0.0,1012.23,68.5
2019-03-10 07:20,50.6304466666667,-96.9807716666667,5.6,7.9,296,983.62,-10.1,78,0.68,0.0,1012.33,68.5
2019-03-10 07:30,50.6304466666667,-96.9807633333333,6.7,8.8,299,983.72,-10.3,79,0.68,0.0,1012.46,68.5
2019-03-10 07:40,50.6304466666667,-96.98077,7.0,9.6,306,983.76,-10.3,80,0.68,0.0,1012.51,68.5
2019-03-10 07:50,50.6304483333333,-96.9807733333333,6.1,8.4,300,983.87,-10.4,81,0.68,0.0,1012.64,68.5
2019-03-10 08:00,50.6304383333333,-96.9807683333333,6.3,8.6,294,983.96,-10.7,82,0.68,0.0,1012.76,90.0
2019-03-10 08:10,50.6304733333333,-96.9807216666667,6.8,9.4,297,984.00,-10.8,84,0.68,0.0,1012.82,90.0
2019-03-10 08:20,50.630465,-96.9807516666667,6.9,8.9,300,984.08,-10.8,84,0.68,0.0,1012.92,90.0
2019-03-10 08:30,50.63046,-96.980765,6.7,11.7,300,984.09,-10.9,85,0.69,0.0,1012.93,90.0
2019-03-10 08:40,50.63046,-96.98077,6.2,9.1,296,984.15,-11.0,85,0.68,0.0,1013.01,90.0
2019-03-10 08:50,50.63046,-96.9807683333333,6.5,9.7,294,984.18,-11.1,86,0.68,0.0,1013.05,90.0
2019-03-10 09:00,50.6304583333333,-96.9807683333333,7.0,9.7,291,984.17,-11.1,86,0.69,0.0,1013.05,360.0
2019-03-10 09:10,50.6304566666667,-96.9807683333333,6.4,9.2,299,984.24,-11.1,87,0.68,0.0,1013.14,360.0
2019-03-10 09:20,50.6304483333333,-96.9807983333333,6.8,9.5,301,984.34,-11.1,87,0.68,0.0,1013.25,360.0
2019-03-10 09:30,50.6304483333333,-96.9807666666667,6.1,9.6,295,984.44,-11.0,87,0.68,0.0,1013.34,360.0
2019-03-10 09:40,50.63045,-96.9807616666667,6.0,8.8,290,984.55,-11.2,87,0.68,0.0,1013.48,360.0
2019-03-10 09:50,50.6304483333333,-96.98077,6.2,9.6,299,984.62,-11.4,89,0.68,0.0,1013.58,360.0
2019-03-10 10:00,50.63047,-96.9808283333333,6.3,9.8,305,984.80,-11.4,90,0.68,0.0,1013.76,312.7
2019-03-10 10:10,50.63043,-96.98076,8.0,11.3,305,984.89,-11.1,90,0.68,0.0,1013.85,312.7
2019-03-10 10:20,50.6304383333333,-96.9807633333333,8.4,11.6,304,984.85,-11.0,90,0.68,0.0,1013.80,312.7
2019-03-10 10:30,50.6304416666667,-96.9807633333333,8.1,13.7,304,984.85,-11.1,91,0.68,0.0,1013.81,312.7
2019-03-10 10:40,50.630445,-96.9807666666667,7.4,11.2,301,984.98,-11.2,92,0.67,0.0,1013.96,312.7
2019-03-10 10:50,50.6304433333333,-96.9807666666667,7.1,10.5,305,985.13,-11.2,92,0.67,0.0,1014.11,312.7
2019-03-10 11:00,50.630465,-96.98078,7.2,12.2,306,985.22,-11.2,94,0.67,0.0,1014.21,332.8
2019-03-10 11:10,50.630455,-96.9807733333333,7.3,10.3,300,985.29,-11.2,94,0.67,0.0,1014.27,332.8
2019-03-10 11:20,50.6304233333333,-96.980765,7.2,10.6,296,985.38,-11.1,95,0.66,0.0,1014.36,332.8
2019-03-10 11:30,50.6304366666667,-96.98077,8.5,12.4,291,985.43,-11.1,95,0.66,0.0,1014.43,332.8
2019-03-10 11:40,50.630455,-96.9807633333333,8.1,11.8,290,985.52,-11.1,95,0.67,0.0,1014.53,332.8
2019-03-10 11:50,50.6304566666667,-96.9807666666667,7.8,11.8,296,985.69,-11.1,95,0.67,0.0,1014.70,332.8
2019-03-10 12:00,50.63045,-96.9807716666667,7.9,11.4,302,985.94,-11.1,95,0.66,0.0,1014.95,228.3
2019-03-10 12:10,50.6304483333333,-96.98077,9.1,13.1,297,986.03,-11.3,96,0.65,0.0,1015.04,228.3
2019-03-10 12:20,50.6304116666667,-96.98075,8.9,13.3,292,986.22,-11.4,97,0.66,0.0,1015.25,228.3
2019-03-10 12:30,50.6304366666667,-96.980775,9.2,14.5,294,986.36,-11.6,97,0.65,0.0,1015.41,228.3
2019-03-10 12:40,50.6304466666667,-96.9807683333333,7.4,11.5,292,986.47,-11.8,98,0.64,0.0,1015.54,228.3
2019-03-10 12:50,50.63045,-96.9807683333333,7.4,11.5,287,986.62,-12.1,98,0.64,0.0,1015.70,228.3
2019-03-10 13:00,50.6304516666667,-96.980765,7.0,10.0,285,986.65,-12.4,99,0.64,0.0,1015.75,119.3
2019-03-10 13:10,50.6304516666667,-96.980765,7.6,11.0,288,986.63,-12.6,99,0.65,0.0,1015.73,119.3
2019-03-10 13:20,50.630455,-96.9807616666667,6.1,8.9,286,986.69,-12.6,98,0.66,0.0,1015.80,119.3
2019-03-10 13:30,50.630455,-96.98076,6.8,12.0,287,986.63,-12.6,98,0.65,0.0,1015.73,119.3
2019-03-10 13:40,50.630455,-96.9807683333333,7.5,11.8,298,986.63,-12.3,97,0.66,0.0,1015.72,119.3
2019-03-10 13:50,50.6304683333333,-96.980765,8.3,11.8,306,986.63,-11.9,95,0.66,0.0,1015.70,119.3
2019-03-10 14:00,50.6304633333333,-96.9807633333333,8.5,13.4,307,986.72,-11.9,94,0.66,0.0,1015.80,111.5
2019-03-10 14:10,50.6304616666667,-96.980765,11.2,17.4,310,986.82,-12.2,93,0.65,0.0,1015.93,111.5
2019-03-10 14:20,50.6304616666667,-96.980765,9.8,14.9,315,987.16,-12.6,93,0.66,0.0,1016.31,111.5
2019-03-10 14:30,50.63046,-96.9807666666667,9.1,14.0,311,987.33,-12.6,93,0.65,0.0,1016.49,111.5
2019-03-10 14:40,50.63046,-96.9807666666667,8.4,11.8,311,987.56,-12.6,92,0.66,0.0,1016.75,111.5
2019-03-10 14:50,50.63046,-96.9807666666667,6.9,11.8,313,987.73,-12.4,90,0.65,0.0,1016.93,111.5
2019-03-10 15:00,50.6304316666667,-96.9807583333333,7.3,12.0,307,987.80,-12.2,89,0.65,0.0,1017.00,165.5
2019-03-10 15:10,50.6304433333333,-96.9807683333333,8.6,12.0,310,987.96,-12.2,90,0.65,0.0,1017.17,165.5
2019-03-10 15:20,50.6304616666667,-96.980775,7.2,11.7,320,988.21,-12.0,88,0.64,0.0,1017.41,165.5
2019-03-10 15:30,50.6304533333333,-96.9807733333333,9.1,13.8,319,988.32,-11.8,87,0.64,0.0,1017.49,165.5
2019-03-10 15:40,50.6304483333333,-96.980775,9.8,14.5,319,988.36,-11.6,85,0.64,0.0,1017.51,165.5
2019-03-10 15:50,50.630445,-96.980775,9.1,14.5,315,988.46,-11.7,85,0.63,0.0,1017.61,165.5
2019-03-10 16:00,50.6304466666667,-96.9807766666667,10.1,14.9,314,988.48,-11.5,82,0.64,0.0,1017.64,192.6
2019-03-10 16:10,50.630455,-96.9807866666667,9.4,13.6,310,988.62,-11.5,82,0.64,0.0,1017.81,192.6
2019-03-10 16:20,50.6304566666667,-96.980775,8.6,13.9,305,988.84,-11.5,81,0.64,0.0,1018.04,192.6
2019-03-10 16:30,50.630445,-96.9807666666667,9.3,14.8,300,989.00,-11.5,79,0.63,0.0,1018.19,192.6
2019-03-10 16:40,50.6304466666667,-96.9807733333333,10.4,15.8,304,989.00,-11.4,78,0.62,0.0,1018.18,192.6
2019-03-10 16:50,50.630445,-96.9807716666667,12.0,15.6,297,988.98,-11.7,78,0.62,0.0,1018.17,192.6
2019-03-10 17:00,50.6304466666667,-96.9807733333333,9.9,15.2,299,989.23,-11.3,75,0.61,0.0,1018.40,360.0
2019-03-10 17:10,50.6304466666667,-96.9807766666667,9.9,14.3,301,989.28,-11.3,76,0.61,0.0,1018.44,360.0
2019-03-10 17:20,50.6304466666667,-96.9807766666667,9.2,13.3,296,989.48,-10.9,74,0.61,0.0,1018.62,360.0
2019-03-10 17:30,50.6304316666667,-96.9807666666667,9.7,13.7,307,989.60,-10.7,73,0.62,0.0,1018.71,360.0
2019-03-10 17:40,50.630455,-96.980775,9.3,13.5,305,989.69,-10.6,71,0.63,0.0,1018.81,360.0
2019-03-10 17:50,50.6304483333333,-96.9807733333333,11.1,16.2,307,989.67,-10.5,71,0.63,0.0,1018.77,360.0
2019-03-10 18:00,50.6304466666667,-96.9807716666667,10.8,15.4,304,989.76,-10.2,70,0.63,0.0,1018.85,327.5
2019-03-10 18:10,50.63043,-96.98078,9.2,15.0,307,989.95,-9.8,69,0.63,0.0,1019.02,327.5
2019-03-10 18:20,50.630425,-96.9807566666667,8.3,11.8,296,990.03,-9.4,67,0.63,0.0,1019.08,327.5
2019-03-10 18:30,50.6304333333333,-96.9807666666667,8.2,12.2,287,990.09,-9.2,66,0.63,0.0,1019.12,327.5
2019-03-10 18:40,50.6304383333333,-96.9807483333333,8.5,12.0,286,990.14,-9.0,66,0.63,0.0,1019.18,327.5
2019-03-10 18:50,50.63044,-96.980765,8.3,12.5,294,990.24,-8.8,65,0.63,0.0,1019.26,327.5
2019-03-10 19:00,50.6304416666667,-96.9807666666667,8.9,14.0,291,990.27,-8.8,65,0.63,0.0,1019.29,167.4
2019-03-10 19:10,50.630445,-96.9807733333333,10.4,14.5,291,990.21,-8.8,66,0.63,0.0,1019.20,167.4
2019-03-10 19:20,50.6304366666667,-96.9807683333333,10.5,15.8,286,990.24,-8.7,65,0.63,0.0,1019.21,167.4
2019-03-10 19:30,50.6304283333333,-96.98077,11.2,15.7,292,990.14,-8.6,65,0.63,0.0,1019.10,167.4
2019-03-10 19:40,50.6304533333333,-96.98078,9.4,13.2,291,990.26,-8.4,64,0.64,0.0,1019.20,167.4
2019-03-10 19:50,50.6304483333333,-96.9807716666667,10.5,15.8,288,990.26,-8.2,64,0.64,0.0,1019.18,167.4
2019-03-10 20:00,50.63045,-96.98077,10.4,16.5,293,990.26,-8.1,64,0.64,0.0,1019.15,12.6
2019-03-10 20:10,50.6304366666667,-96.9807783333333,9.7,15.8,305,990.35,-7.9,63,0.65,0.0,1019.21,12.6
2019-03-10 20:20,50.6304416666667,-96.9807766666667,9.8,14.9,294,990.43,-7.7,63,0.65,0.0,1019.27,12.6
2019-03-10 20:30,50.6304433333333,-96.980775,8.7,14.2,296,990.53,-7.6,63,0.66,0.0,1019.35,12.6
2019-03-10 20:40,50.6304416666667,-96.980775,10.4,16.0,299,990.46,-7.6,62,0.67,0.0,1019.28,12.6
2019-03-10 20:50,50.63044,-96.980775,9.5,14.1,290,990.65,-7.5,62,0.67,0.0,1019.47,12.6
2019-03-10 21:00,50.6304416666667,-96.9807733333333,10.1,13.9,295,990.74,-7.4,61,0.66,0.0,1019.55,360.0
2019-03-10 21:10,50.6304416666667,-96.9807733333333,9.5,13.7,287,990.90,-7.5,61,0.66,0.0,1019.72,360.0
2019-03-10 21:20,50.6304433333333,-96.9807733333333,9.5,13.0,295,990.99,-7.4,60,0.66,0.0,1019.80,360.0
2019-03-10 21:30,50.630445,-96.9807966666667,9.2,13.6,295,991.15,-7.4,60,0.67,0.0,1019.95,360.0
2019-03-10 21:40,50.630445,-96.98077,8.2,11.9,292,991.28,-7.3,60,0.67,0.0,1020.07,360.0
2019-03-10 21:50,50.6304466666667,-96.9807683333333,7.5,10.7,291,991.35,-7.1,59,0.66,0.0,1020.12,360.0
2019-03-10 22:00,50.6304483333333,-96.9807733333333,7.5,12.5,299,991.39,-7.0,59,0.66,0.0,1020.15,347.4
2019-03-10 22:10,50.6304516666667,-96.9807733333333,8.3,12.6,290,991.48,-7.1,59,0.67,0.0,1020.23,347.4
2019-03-10 22:20,50.63045,-96.9807733333333,8.0,13.1,292,991.59,-7.2,58,0.67,0.0,1020.34,347.4
2019-03-10 22:30,50.6304366666667,-96.980765,9.0,13.0,290,991.65,-7.3,58,0.67,0.0,1020.41,347.4
2019-03-10 22:40,50.6304383333333,-96.9807683333333,7.8,11.1,291,991.78,-7.2,57,0.67,0.0,1020.54,347.4
2019-03-10 22:50,50.6304416666667,-96.98077,7.9,11.5,303,991.81,-7.2,57,0.68,0.0,1020.57,347.4
2019-03-10 23:00,50.6304433333333,-96.9807683333333,6.9,11.3,310,992.02,-7.1,57,0.67,0.0,1020.78,360.0
2019-03-10 23:10,50.6304433333333,-96.9807683333333,6.6,11.0,315,992.14,-7.3,57,0.67,0.0,1020.91,360.0
2019-03-10 23:20,50.6304416666667,-96.9807666666667,6.1,9.2,312,992.25,-7.4,57,0.68,0.0,1021.03,360.0
2019-03-10 23:30,50.6304433333333,-96.9807683333333,7.0,10.3,312,992.29,-7.5,57,0.68,0.0,1021.07,360.0
2019-03-10 23:40,50.6304433333333,-96.9807683333333,5.9,9.1,313,992.37,-7.7,58,0.68,0.0,1021.15,360.0
2019-03-10 23:50,50.630445,-96.98077,5.3,8.1,313,992.47,-7.8,58,0.68,0.0,1021.25,360.0
